Location: Chippewa Lake
(41.0698°N, 81.9010°W)
Time: 01:47:51
(UTC+00:00)

Cosmos 1656 Rocket - Pass Details

Date: 09 May 2021
Orbit: 794 x 848 km, 71.1° (Epoch: 24 June)

Event Time Altitude Azimuth Distance (km) Brightness Sun altitude
Exits shadow 06:24:33 44° 310° (NW) 1,100 4.3 -29.8°
Drops below altitude 10° 06:29:28 10° 12° (NNE) 2,410 7.0 -29.6°
Sets 06:32:02 0° 19° (NNE) 3,354 8.0 -29.4°
